Regional Weather Roundup
Issued by NWS

Home | Current Version | Previous Version | Graphics & Text | Print | Product List | Glossary Off
Versions: 1 2 3 4 5 6 7 8 9 10 11 12 13 14 15 16 17 18 19 20 21 22 23 24 25 26 27 28 29 30 31 32 33 34 35 36 37 38 39 40 41 42 43 44 45 46 47 48 49 50

000
ASUS43 KDTX 240310
RWRMI
MICHIGAN HOURLY REGIONAL WEATHER ROUNDUP
NATIONAL WEATHER SERVICE DETROIT/PONTIAC MI
1100 PM EDT WED JUL 23 2014

NOTE: "FAIR" INDICATES FEW OR NO CLOUDS BELOW 12,000 FEET WITH NO
SIGNIFICANT WEATHER AND/OR OBSTRUCTION TO VISIBILITY.

MIZ047>049-052>055-059>063-066>070-074>076-081>083-240400-
SOUTHEAST LOWER MICHIGAN

CITY           SKY/WX    TMP DP  RH WIND       PRES   REMARKS
ADRIAN         CLOUDY    64  57  78 NE5       30.09R
ALMA           MOCLDY    60  54  79 N5        30.12S
ANN ARBOR      CLOUDY    65  54  67 NE10      30.09R
BAD AXE        MOCLDY    57  50  78 CALM      30.11S
CARO           CLOUDY    62  59  91 CALM      30.10F
DETROIT CITY   CLEAR     65  53  65 N9        30.09R
DETROIT        PTCLDY    64  55  72 N8        30.09R
FLINT          MOCLDY    63  51  65 NE8       30.11S
GROSSE ILE     CLEAR     64  55  72 N10G16    30.07S
HILLSDALE      CLOUDY    67  59  75 N5        30.10R
HOWELL         MOCLDY    63  55  74 NE3       30.11R

CITY           SKY/WX    TMP DP  RH WIND       PRES   REMARKS
JACKSON        MOCLDY    65  57  75 N5        30.10R
LAMBERTVILLE   PTCLDY    64  57  77 CALM      30.08S
LANSING        PTCLDY    62  55  77 N6        30.12R
LAPEER         FAIR      55  51  86 CALM      30.11F
MASON          PTCLDY    64  56  76 N5        30.11S
MONROE         CLEAR     63  57  82 CALM      30.07R
MT. CLEMENS    CLEAR     58  52  79 N8        30.08S
PONTIAC        MOCLDY    61  53  75 NE7       30.10S
PORT HOPE        N/A     64  55  72 CALM      30.08F
PORT HURON     CLEAR     55  52  88 NW5       30.09F
TRI CITIES     CLOUDY    66  51  58 CALM      30.12S
TROY           CLEAR     62  53  72 N3        30.11R
SAGINAW HB     CLOUDY    63  50  63 CALM      30.11S
$$
MIZ043>046-050>051-056>058-064>065-071>073-077>080-240400-
SOUTHWEST LOWER MICHIGAN

CITY           SKY/WX    TMP DP  RH WIND       PRES   REMARKS
BATTLE CREEK   CLEAR     63  54  72 N6        30.11S
BENTON HARBOR  CLEAR     61  57  87 N6        30.10F
BIG RAPIDS     PTCLDY    58  50  73 N5        30.14S
COLDWATER      PTCLDY    66  57  72 N7G16     30.10R
FREMONT        FAIR      58  50  74 CALM      30.14F
HOLLAND        PTCLDY    65  54  67 N3        30.13S
GRAND RAPIDS   PTCLDY    62  54  74 N5        30.12S
IONIA          FAIR      60  54  81 N3        30.11S
KALAMAZOO      PTCLDY    64  54  69 N7        30.11S
LUDINGTON      CLEAR     56  53  89 CALM      30.16F
MARSHALL       CLEAR     62  55  78 N3        30.10S
MOUNT PLEASANT CLOUDY    62  55  78 CALM      30.13R
MUSKEGON       PTCLDY    63  50  62 N9        30.14S
SOUTH HAVEN    CLEAR     60  58  96 NE5       30.11R
$$
MIZ016>042-240400-
NORTHERN LOWER MICHIGAN

CITY           SKY/WX    TMP DP  RH WIND       PRES   REMARKS
ALPENA         CLEAR     58  50  75 NW7       30.13S
BEAVER ISLAND  CLEAR     58  50  75 CALM      30.17S
BELLAIRE       CLEAR     59  50  71 CALM      30.15S
CADILLAC       PTCLDY    54  49  85 NW5       30.15F
CHARLEVOIX     CLEAR     62  52  69 N9        30.19S
FRANKFORT      CLEAR     58  51  77 CALM      30.16S
GAYLORD        CLEAR     56  49  77 CALM      30.16S
GRAYLING       CLEAR     53  52  97 CALM      30.16S
HARBOR SPRINGS CLEAR     58  49  72 N6        30.15F
HOUGHTON LAKE  CLEAR     57  52  83 NW6       30.15S
MANISTEE       CLEAR     61  48  63 NE6       30.17S
OSCODA         PTCLDY    60  49  68 NW7       30.11S
PELLSTON       CLEAR     56  48  74 NW7       30.16S
ROGERS CITY    PTCLDY    58  51  78 NW8       30.15S
TRAVERSE CITY  CLEAR     62  52  69 N3        30.15S
$$
MIZ007>008-015-240400-
EASTERN UPPER MICHIGAN

CITY           SKY/WX    TMP DP  RH WIND       PRES   REMARKS
KINROSS        CLEAR     54  48  82 NW9       30.15S
MACKINAC ISLAN CLEAR     56  48  72 N7        30.15F
NEWBERRY       CLEAR     49  46  86 NW5       30.16S
S. S. MARIE    CLEAR     50  45  83 W5        30.14S
MUNISING         N/A     51  46  83 S7        30.16F
$$
MIZ004>006-011>014-085-240400-
CENTRAL UPPER MICHIGAN

CITY           SKY/WX    TMP DP  RH WIND       PRES   REMARKS
MANISTIQUE     CLEAR     47  43  87 N5        30.16F
ESCANABA       CLEAR     59  43  55 N3        30.17S
MENOMINEE      CLEAR     61  50  67 CALM      30.17R
SAWYER-GWINN   CLEAR     54  46  73 CALM      30.18F
$$
MIZ001>003-009>011-084-240400-
WESTERN UPPER MICHIGAN

CITY           SKY/WX    TMP DP  RH WIND       PRES   REMARKS
IRON MOUNTAIN  CLEAR     57  47  69 CALM      30.17S
HOUGHTON       CLEAR     52  46  80 NW5       30.18S
COPPER HARBOR    N/A     58  48  69 VRB3      30.17S
$$

ABBREVIATIONS USED IN REMARKS
   TC - TEMPERATURE IN CELSIUS
  WCI - WIND CHILL INDEX
   HX - HEAT INDEX
  VSB - VISIBILITY




USA.gov is the U.S. government's official web portal to all federal, state and local government web resources and services.